This is the latest recevied weather packets stored in our database for station/object WP3XM. If no packets are shown the sender has not sent any weather packets the latest 10 day(s).
| Time | Temp. | Humidity | Pressure | Rain* | Wind** | Luminosity | Snow |
|---|---|---|---|---|---|---|---|
| 1778163447 | 28.33° C | 75% | 1019.2 hPa | 0 mm | - | 285 W/m² | - |
| 1778163144 | 28.33° C | 75% | 1019.5 hPa | 0 mm | - | 269 W/m² | - |
| 1778162840 | 28.33° C | 75% | 1019.5 hPa | 0 mm | - | 1039 W/m² | - |
| 1778162538 | 28.33° C | 75% | 1019.5 hPa | 0 mm | - | 340 W/m² | - |
| 1778162235 | 28.33° C | 75% | 1019.2 hPa | 0 mm | - | 872 W/m² | - |
| 1778161932 | 27.78° C | 79% | 1019.4 hPa | 0 mm | - | 951 W/m² | - |
| 1778161628 | 27.78° C | 79% | 1019.4 hPa | 0 mm | - | 246 W/m² | - |
| 1778161324 | 27.78° C | 79% | 1019.3 hPa | 0 mm | - | 659 W/m² | - |
| 1778161020 | 28.33° C | 77% | 1019.1 hPa | 0 mm | - | 216 W/m² | - |
| 1778160718 | 27.78° C | 78% | 1019.1 hPa | 0 mm | - | 887 W/m² | - |
| 1778160415 | 27.78° C | 79% | 1019.2 hPa | 0 mm | - | 786 W/m² | - |
| 1778160111 | 27.22° C | 81% | 1019 hPa | 0 mm | - | 789 W/m² | - |
| 1778159808 | 27.22° C | 82% | 1019 hPa | 0 mm | - | 140 W/m² | - |
| 1778159506 | 27.22° C | 82% | 1018.8 hPa | 0 mm | - | 789 W/m² | - |
| 1778159202 | 26.67° C | 84% | 1019 hPa | 0 mm | - | 304 W/m² | - |
| 1778158900 | 26.67° C | 84% | 1019 hPa | 0 mm | - | 168 W/m² | - |
| 1778158599 | 26.67° C | 83% | 1019.1 hPa | 0 mm | - | 132 W/m² | - |
| 1778158296 | 26.67° C | 83% | 1019.1 hPa | 0 mm | - | 158 W/m² | - |
| 1778157992 | 27.22° C | 82% | 1019 hPa | 0 mm | - | 160 W/m² | - |
| 1778157690 | 27.22° C | 82% | 1019.1 hPa | 0 mm | - | 181 W/m² | - |
| 1778157388 | 27.22° C | 83% | 1018.9 hPa | 0 mm | - | 577 W/m² | - |
| 1778157085 | 27.22° C | 85% | 1018.9 hPa | 0 mm | - | 564 W/m² | - |
| 1778156780 | 26.67° C | 87% | 1018.7 hPa | 0 mm | - | 526 W/m² | - |
| 1778156476 | 26.11° C | 88% | 1018.8 hPa | 0 mm | - | 572 W/m² | - |
| 1778156172 | 26.11° C | 88% | 1018.7 hPa | 0 mm | - | 264 W/m² | - |
* Rain latest hour (hover to see other rain measurements)
** Current wind speed in m/s (hover to see current wind gust speed)